Theta_e
312 312 312 310 308 304 308 311 305 314 318 308 309 304 300 299 301 304 302 302 300 299 298 297 295 295 299 302 301 295 298 294 292 295 302 301 299 296 297 293 290 293 291 291
312 312 311 310 307 305 308 306 307 316 315 302 303 303 300 301 300 301 301 299 301 301 298 293 296 298 301 302 300 295 296 292 288 291 297 299 295 297 298 297 295 291 288 291
312 312 311 310 307 305 308 306 302 307 308 306 301 298 299 297 301 300 301 300 301 298 294 297 295 295 299 300 299 301 298 293 292 287 292 295 292 294 296 295 290 291 290 294
312 312 311 310 307 305 308 305 300 301 299 299 299 299 297 294 293 299 300 297 297 295 291 293 293 295 297 300 301 299 294 288 293 294 295 294 293 293 293 291 293 289 293 294
312 312 311 310 306 304 309 302 301 303 300 297 297 295 295 292 293 293 293 293 295 296 291 292 290 293 294 292 298 297 296 288 292 290 293 293 290 292 291 292 292 292 293 293
312 312 311 311 306 305 308 308 308 303 296 295 296 296 294 293 295 296 297 295 293 293 295 297 298 300 299 296 293 292 292 291 289 286 291 289 286 290 291 292 294 293 289 295
310 311 311 311 306 305 308 306 306 300 295 295 293 294 294 292 293 291 296 297 294 298 301 302 301 300 297 296 296 295 289 290 289 286 288 279 291 298 297 295 295 296 297 298
308 309 311 311 308 304 308 306 305 299 294 296 295 294 293 294 295 294 296 297 300 300 295 291 290 293 294 295 297 295 291 288 286 285 284 288 291 294 295 294 295 299 299 300
307 306 308 311 310 306 306 306 308 304 296 295 298 296 296 293 292 293 294 299 302 299 294 289 284 284 289 289 288 294 293 291 288 287 281 280 292 297 301 300 290 301 300 299
306 305 306 308 310 307 306 304 308 303 295 300 299 294 293 296 294 290 293 294 295 297 291 285 286 287 292 287 287 285 286 286 284 284 284 289 296 299 300 287 292 301 301 301
305 305 305 306 307 309 304 303 306 301 296 299 300 299 295 294 293 288 293 292 292 290 287 287 290 289 290 288 290 289 287 285 285 286 283 281 299 298 292 299 303 302 302 301
305 305 305 305 307 308 306 300 304 305 297 297 304 304 304 301 299 294 293 293 292 292 289 289 290 289 291 289 286 295 288 292 289 289 291 298 302 301 304 304 301 301 301 301
305 305 306 307 307 308 307 303 302 300 295 295 298 298 305 307 305 305 292 293 295 294 298 292 290 288 293 287 289 290 294 297 293 293 297 298 301 302 303 303 302 303 302 299
305 305 306 307 308 309 308 301 303 301 296 290 297 304 301 304 306 305 303 300 299 299 296 289 289 288 295 291 293 291 294 295 293 293 297 299 300 301 303 302 303 300 301 300
305 306 307 308 308 308 309 305 304 305 298 290 293 301 304 303 304 301 301 299 297 293 289 288 288 293 294 295 294 292 297 293 291 291 297 297 298 302 302 299 297 298 297 297
305 306 307 308 308 308 302 295 301 303 302 291 289 300 299 301 300 299 298 298 297 293 290 290 293 297 293 289 289 296 297 299 298 297 300 300 301 302 301 298 298 300 299 300
305 306 307 307 307 307 299 296 304 304 303 292 289 293 298 299 300 300 297 298 294 293 290 290 292 294 294 291 288 294 298 299 300 300 298 297 299 295 299 300 300 300 299 300
305 306 307 307 305 302 298 303 304 304 297 295 287 291 294 300 295 294 298 292 292 291 291 293 291 293 293 288 295 297 297 296 297 297 299 299 298 300 300 299 298 297 298 297
305 306 305 303 300 296 297 305 302 302 297 291 288 286 290 299 297 295 293 295 288 295 290 291 293 290 288 293 295 295 296 296 295 298 298 297 298 297 296 297 297 297 295 295
305 303 297 291 297 305 303 296 292 292 292 293 287 292 288 296 294 293 289 293 291 288 291 293 287 289 296 297 298 296 298 297 298 295 295 296 296 294 296 296 298 296 295 295
300 294 290 297 303 296 292 288 288 288 286 289 289 290 288 296 288 290 294 288 289 287 289 289 289 291 294 295 294 297 296 297 297 299 299 298 297 296 296 297 296 295 295 293
298 296 299 297 292 290 288 287 288 286 286 291 291 291 291 292 295 289 291 288 288 285 293 289 287 291 296 294 295 296 297 297 298 298 296 298 298 298 297 297 295 296 295 293
297 292 289 290 288 284 284 282 285 286 291 292 291 289 290 291 291 289 288 286 289 295 289 289 292 294 296 296 297 296 297 298 297 296 297 297 297 298 297 296 296 296 293 292
290 288 284 286 284 287 290 291 292 294 293 292 292 289 288 290 288 289 286 292 293 287 285 285 291 294 296 297 298 296 296 297 296 295 296 296 297 296 297 296 296 294 291 290
289 289 285 287 294 295 297 297 295 294 295 293 292 292 290 289 288 292 291 288 286 288 289 294 295 298 297 298 297 297 297 296 296 296 296 296 296 296 295 296 296 293 291 289
290 288 288 293 292 293 295 296 294 295 294 295 292 289 288 288 290 288 287 287 286 292 297 298 298 297 297 297 298 297 296 296 295 295 296 297 296 295 295 296 294 293 290 288
289 289 293 295 296 296 297 299 297 297 293 289 290 287 287 292 289 286 293 290 295 297 298 299 299 298 298 298 296 295 295 295 295 296 297 296 296 296 295 292 293 293 290 289
Wind_Speed
13 12 13 15 17 24 8 5 2 7 5 5 0 2 3 2 4 3 3 6 8 9 5 8 7 12 13 6 5 2 2 6 13 19 13 12 12 17 18 12 9 11 11 14
12 12 12 12 14 14 8 5 3 4 7 3 2 2 2 3 7 6 4 4 3 4 8 4 8 10 4 9 6 4 2 6 6 7 16 14 14 17 14 17 16 19 17 9
11 11 10 11 12 13 6 5 2 3 5 3 3 4 2 4 6 7 6 6 5 5 5 6 7 6 5 1 3 8 2 7 14 13 14 6 11 12 12 14 12 17 19 24
10 10 9 10 12 14 5 4 3 4 2 4 3 2 1 5 5 4 7 3 5 5 3 7 10 13 13 12 9 6 5 6 15 20 21 19 19 20 19 21 22 23 20 25
8 8 9 8 11 17 3 4 4 2 3 1 3 3 2 3 2 1 3 5 8 8 6 7 5 6 8 9 8 10 7 5 14 18 17 16 20 21 23 25 24 27 25 25
8 7 8 6 8 10 3 1 0 5 4 1 3 2 1 3 8 6 5 6 7 11 12 11 13 16 17 13 9 7 5 5 5 8 10 11 15 20 20 18 20 17 19 16
9 8 6 5 1 6 3 1 3 4 1 3 4 5 5 5 5 11 16 13 12 4 9 14 17 22 23 23 21 13 7 12 4 6 7 9 1 2 4 8 8 7 10 12
9 9 7 6 6 3 2 1 2 2 4 6 8 6 5 7 8 12 12 9 4 3 5 6 10 10 10 11 19 16 14 6 4 4 9 13 17 5 7 8 10 3 10 10
8 9 9 7 9 9 2 2 3 3 3 3 6 7 7 8 6 9 4 1 5 7 3 2 5 4 5 1 2 6 8 15 5 5 5 5 5 4 0 4 10 7 5 11
7 8 9 10 8 15 4 2 6 3 3 6 4 4 5 4 4 4 7 3 3 2 2 3 6 7 3 4 3 4 5 2 8 10 6 7 4 2 3 6 5 9 13 15
8 9 9 9 10 9 7 2 6 3 3 6 6 7 8 5 4 3 3 6 3 2 4 4 3 4 2 4 3 3 4 6 5 6 4 9 3 4 5 8 12 14 16 18
9 11 11 11 11 5 12 2 3 2 2 5 6 11 14 16 13 3 5 4 3 1 3 2 3 3 3 3 3 6 4 4 1 5 3 3 2 8 8 9 12 15 18 21
11 12 12 13 12 10 15 3 4 3 2 5 8 8 10 12 16 13 5 4 5 4 2 2 2 6 2 3 3 5 5 5 7 6 3 4 7 7 6 10 17 18 17 19
11 12 13 14 15 12 14 5 5 1 2 3 3 2 4 4 9 14 17 13 1 1 3 3 3 3 4 3 5 9 9 11 9 13 13 9 8 6 14 18 18 19 20 21
13 14 15 14 13 9 5 6 5 3 3 2 5 12 11 4 13 12 13 12 11 2 2 3 3 4 4 6 7 9 7 6 6 5 6 8 13 15 19 17 17 18 20 22
14 15 14 14 9 3 3 2 3 4 2 2 4 5 5 5 5 9 11 8 6 3 3 3 3 5 3 4 4 6 4 5 3 6 9 12 16 16 14 17 19 20 21 21
13 13 14 11 7 6 2 2 3 11 3 2 4 4 6 4 6 5 5 6 2 2 2 4 3 4 4 3 7 4 6 4 7 8 9 14 14 15 16 17 19 20 20 21
12 14 11 8 13 9 1 3 14 8 3 3 3 4 5 5 3 3 4 4 3 5 3 3 3 2 3 5 9 4 1 4 7 7 10 13 15 16 16 16 17 20 20 21
12 3 16 5 2 2 3 14 7 2 2 3 3 3 1 4 3 2 2 3 3 3 4 3 3 3 6 7 5 2 2 5 8 11 12 13 13 15 16 18 19 19 21 22
8 2 1 2 1 20 14 3 3 2 0 1 3 3 5 2 2 3 1 3 3 4 3 3 3 3 10 3 4 2 3 4 8 12 13 15 15 14 17 18 17 18 19 18
1 2 2 0 5 2 1 3 4 4 4 5 4 6 5 1 4 2 2 1 1 3 3 3 4 3 4 4 2 1 4 6 10 11 13 13 14 14 15 17 18 18 20 18
4 6 3 2 1 2 4 4 3 5 4 5 4 3 4 1 1 2 2 3 2 1 5 3 3 4 7 6 3 3 5 7 10 10 12 13 13 13 14 15 17 18 18 17
2 3 3 3 3 5 5 7 5 4 4 4 4 3 2 2 2 2 2 4 2 4 4 2 2 5 6 5 3 2 6 6 8 10 12 13 13 14 14 15 16 18 17 17
2 3 5 5 5 6 4 4 2 5 2 3 3 2 3 2 4 3 4 3 4 3 4 1 3 5 5 3 3 4 5 7 8 10 12 14 14 14 14 14 15 16 17 16
2 3 4 6 5 3 2 3 5 3 2 3 2 3 3 3 3 4 2 4 4 2 2 5 6 6 4 1 3 5 6 7 8 10 11 12 13 13 14 14 15 15 16 16
2 3 4 4 4 5 6 4 3 4 2 1 2 2 3 4 3 4 4 2 0 2 3 6 6 5 5 4 4 6 7 8 8 9 10 11 12 13 14 15 15 15 16 15
3 3 4 7 3 4 1 1 3 4 3 3 2 4 2 2 3 3 1 1 2 3 5 5 6 6 5 4 6 6 7 7 8 9 9 11 12 12 13 15 16 14 15 14
Wind_Direction
320 326 327 333 340 336 322 291 188 19 312 228 273 315 0 296 340 330 297 297 296 283 289 268 241 251 241 129 77 259 82 289 266 263 265 249 238 267 273 256 257 262 281 262
322 325 328 335 339 0 316 339 349 35 289 278 133 78 270 354 346 328 309 280 265 295 282 284 276 280 323 275 221 190 90 226 263 256 224 234 252 253 248 259 269 256 256 251
315 320 329 331 337 342 298 292 236 80 58 76 340 3 15 323 347 300 314 305 331 306 283 259 273 262 279 258 292 199 221 250 253 265 293 259 276 276 263 259 255 264 256 268
324 322 327 332 335 335 288 348 63 352 31 70 11 315 356 320 352 346 307 262 280 340 281 274 244 242 258 284 271 227 185 253 252 261 270 276 274 270 268 260 256 257 272 275
316 319 323 331 338 325 288 339 321 152 110 237 286 149 72 323 8 292 343 306 301 289 250 236 280 293 273 257 274 237 194 252 259 263 259 265 269 267 264 260 262 265 269 275
319 313 309 320 345 327 332 37 174 296 125 189 288 16 34 313 330 278 280 315 320 287 286 270 274 275 276 264 237 222 231 238 236 252 265 282 271 255 254 259 259 262 261 273
327 313 301 291 321 6 323 4 305 275 226 285 293 276 291 277 278 274 287 280 274 317 332 294 266 255 251 249 240 208 203 232 233 262 295 256 316 356 304 297 299 259 259 269
313 321 310 269 209 171 274 153 253 261 276 310 276 254 277 296 283 263 302 301 326 39 329 286 293 262 229 241 232 215 196 190 241 236 226 279 283 203 258 290 292 250 298 314
307 321 314 302 214 176 183 210 233 254 281 216 262 284 281 294 291 281 261 354 294 280 262 259 258 279 317 174 185 328 228 200 213 197 235 247 59 114 8 304 269 66 355 320
288 306 318 308 315 185 172 202 209 271 248 288 250 257 290 274 288 264 297 357 290 233 238 240 250 253 299 286 303 153 135 139 215 223 242 266 41 158 251 251 34 326 314 308
279 285 293 301 303 220 170 187 190 192 223 278 244 251 240 252 238 239 9 290 140 197 230 256 301 292 47 273 314 290 204 192 191 214 236 253 129 188 252 353 315 313 311 306
273 275 278 277 277 289 187 205 161 150 222 271 297 268 258 252 250 237 191 279 122 249 258 235 302 273 255 311 285 192 262 247 313 235 235 292 229 294 311 308 305 310 308 313
269 274 282 285 278 260 188 190 129 128 233 270 253 252 239 219 231 222 218 208 224 214 211 296 277 264 254 264 252 287 265 253 254 285 232 242 281 297 264 304 313 313 314 303
279 285 284 278 274 263 195 183 170 142 115 263 262 150 224 210 231 216 211 244 203 255 167 220 258 261 246 262 279 275 282 280 290 290 276 320 259 283 323 319 316 317 308 309
287 285 285 282 275 249 206 199 186 181 178 243 291 301 268 287 223 224 218 225 231 215 193 214 233 260 263 262 273 260 257 274 267 285 330 311 300 316 316 313 314 311 307 311
282 289 295 300 280 185 122 172 167 166 134 122 284 25 248 183 182 213 226 228 218 163 193 217 231 253 246 275 255 279 218 247 189 296 318 300 302 301 322 322 310 314 315 311
285 292 298 287 268 172 207 184 98 146 116 155 259 244 150 199 208 174 200 197 179 165 204 225 234 236 209 247 263 346 286 328 320 331 311 300 324 319 309 325 322 316 309 301
289 295 278 302 114 118 87 67 126 118 116 201 247 268 232 161 208 209 147 157 194 183 233 220 218 172 224 255 261 254 16 293 292 281 296 296 294 302 335 323 317 311 318 321
289 328 107 109 71 146 119 125 80 40 277 221 199 244 329 176 152 187 194 188 182 199 221 208 201 183 225 245 284 151 293 313 306 301 298 294 318 330 323 322 319 323 325 326
238 84 116 105 329 123 105 87 164 170 345 263 252 219 257 256 214 149 233 226 223 205 198 130 214 241 261 310 82 114 282 317 308 310 322 328 326 328 322 322 325 329 323 331
128 91 71 33 67 67 114 136 201 156 216 195 219 233 240 192 245 264 207 261 234 242 143 238 205 235 120 122 122 247 306 303 299 314 326 328 324 323 323 324 331 331 335 335
105 99 79 65 187 215 212 187 154 221 238 170 216 177 201 245 204 249 230 261 194 266 142 245 253 91 143 155 196 252 287 289 340 342 336 333 329 332 327 331 334 337 342 341
74 74 141 195 159 209 220 185 192 208 191 167 181 176 186 186 219 240 249 236 217 159 203 232 69 132 153 179 208 282 273 345 346 346 344 337 336 338 337 338 340 343 343 351
149 169 170 228 179 231 209 232 67 82 164 175 182 160 193 173 191 232 241 219 196 236 219 209 118 163 158 171 232 327 349 352 344 347 343 341 345 340 342 353 349 349 353 352
176 210 219 212 243 229 229 192 133 161 200 176 198 194 176 183 235 226 247 211 224 298 49 66 121 135 159 139 48 0 359 354 355 347 348 345 346 344 352 359 358 1 360 357
189 233 246 226 240 229 204 199 210 140 199 142 220 223 219 199 252 207 221 260 154 99 74 95 132 137 115 87 42 28 7 6 5 354 354 348 351 353 359 4 2 9 7 5
219 227 242 281 284 294 6 229 145 154 180 186 201 219 192 145 237 229 125 252 75 115 109 109 104 124 102 87 63 37 29 19 13 1 3 358 356 2 10 8 1 13 12 8